www.pogodaiklimat.ru
ПОГОДА в Хасфьярдене
Время
(UTC), дата
13 3.12
14 3.12
15 3.12
16 3.12
18 3.12
19 3.12
20 3.12
21 3.12
22 3.12
23 3.12
00 4.12
01 4.12
02 4.12
03 4.12
04 4.12
05 4.12
06 4.12
07 4.12
08 4.12
09 4.12
10 4.12
11 4.12
12 4.12
13 4.12
14 4.12
15 4.12
16 4.12
17 4.12
18 4.12
19 4.12
20 4.12
21 4.12
22 4.12
23 4.12
00 5.12
01 5.12
02 5.12
03 5.12
04 5.12
05 5.12
06 5.12
07 5.12
08 5.12
09 5.12
10 5.12
11 5.12
12 5.12
13 5.12
14 5.12
15 5.12
16 5.12
17 5.12
18 5.12
19 5.12
20 5.12
21 5.12
22 5.12
23 5.12
00 6.12
01 6.12
02 6.12
03 6.12
04 6.12
05 6.12
06 6.12
07 6.12
08 6.12
09 6.12
10 6.12
11 6.12
12 6.12
13 6.12
14 6.12
15 6.12
16 6.12
17 6.12
18 6.12
19 6.12
20 6.12
21 6.12
22 6.12
23 6.12
00 7.12
01 7.12
02 7.12
03 7.12
04 7.12
05 7.12
06 7.12
07 7.12
08 7.12
09 7.12
10 7.12
11 7.12
12 7.12
13 7.12
14 7.12
15 7.12
16 7.12
17 7.12
18 7.12
19 7.12
20 7.12
21 7.12
22 7.12
23 7.12
00 8.12
01 8.12
02 8.12
03 8.12
04 8.12
05 8.12
06 8.12
08 8.12
09 8.12
10 8.12
11 8.12
12 8.12
13 8.12
14 8.12
15 8.12
16 8.12
17 8.12
18 8.12
19 8.12
20 8.12
21 8.12
22 8.12
23 8.12
00 9.12
01 9.12
02 9.12
03 9.12
04 9.12
05 9.12
06 9.12
07 9.12
08 9.12
09 9.12
10 9.12
11 9.12
12 9.12
13 9.12
14 9.12
15 9.12
16 9.12
17 9.12
18 9.12
19 9.12
20 9.12
21 9.12
22 9.12
23 9.12
00 10.12
01 10.12
02 10.12
03 10.12
04 10.12
05 10.12
06 10.12
07 10.12
08 10.12
09 10.12
10 10.12
11 10.12
12 10.12
Ветер
(напр.,м/с)
Видим. Явления Облачность Т
(С)
Тd
(С)
f
(%)
Тe
(С)
Тes
(С)
Комфортность P
(гПа)
Po
(гПа)
Тmin
(С)
Tmax
(С)
R
(мм)
R24
(мм)
S
(см)
ЮЗ 3-5
{5}
50 км ясно +0.9 -0.8 88 -4 -4 прохладно 1011.3 1010.7
ЮЗ 3-5
{6}
10 км осадки ясно +0.7 -0.1 94 -4 -4 прохладно 1010.8 1010.2 0.2
ЮЗ 4-5
{6}
17 км слаб. переохл. морось (гололёд) {дождь} ясно +1.1 +1.0 99 -4 -4 прохладно 1009.6 1009.1 0.7
ЮЗ 3-6
{6}
5000 м слаб. дождь {морось, осадки} ясно +1.7 +1.7 100 -3 -3 прохладно 1008.5 1008.0 0.4
ЮЗ 4-6
{6}
2600 м в посл. час морось {ливн. осадки, дождь} 5/5 180 м
[]
+2.5 +2.5 100 -3 -3 прохладно 1007.1 1006.6 -5.0 +2.6 0.1
ЮЗ 2-4
{6}
16 км {морось} ?/? +2.6 +2.6 100 -1 -1 по сезону 1006.8 1006.3
З 3-5
{5}
8000 м дымка ?/? +2.5 +2.5 100 -2 -2 по сезону 1006.3 1005.8
З 2-5
{5}
9000 м дымка 5/5 120 м
[]
+2.6 +2.6 100 -1 -1 по сезону 1006.2 1005.7
З 2-5
{5}
23 км {морось, дымка} ?/? +2.7 +2.7 100 -1 -1 по сезону 1006.1 1005.6
З 2-3
{5}
40 км {морось, дымка} ?/? +2.6 +2.6 100 -1 -1 по сезону 1006.6 1006.1
З 2-4
{4}
35 км {морось, дымка} 9/9 150 м
[]
+2.6 +2.6 100 -1 -1 по сезону 1006.8 1006.3
З 2-4
{4}
35 км ясно +2.7 +2.7 100 -1 -1 по сезону 1006.5 1006.0
З 2-3
{3}
40 км ясно +2.4 +2.4 100 -1 -1 по сезону 1006.5 1006.0
З 4-6
{6}
50 км ясно +2.9 +2.9 100 -2 -2 по сезону 1006.7 1006.2
З 3-6
{6}
50 км ясно +3.2 +3.0 99 -1 -1 по сезону 1006.9 1006.4
З 3-5
{7}
50 км ясно +3.3 +3.1 99 -1 -1 по сезону 1007.3 1006.8
З 1-4
{6}
50 км ясно +3.3 +3.0 98 +2 +2 по сезону 1007.7 1007.2 +2.2 +3.5
З 1-5
{5}
50 км ясно +3.2 +3.0 99 +1 +1 по сезону 1008.5 1008.0
З 2-4
{5}
45 км ясно +3.9 +3.4 97 +1 +1 по сезону 1008.8 1008.3
З 3-4
{5}
50 км ясно +3.8 +3.4 97 -0 -0 по сезону 1009.2 1008.7
З 2-5
{5}
45 км ясно +4.5 +3.9 96 +2 +2 по сезону 1009.0 1008.5
З 4-7
{7}
45 км ?/? +4.1 +3.7 97 -1 -1 по сезону 1009.3 1008.8
З 4-7
{8}
40 км 9/9 120 м
[]
+3.6 +3.5 99 -1 -1 по сезону 1009.2 1008.7
З 3-6
{7}
45 км ?/? +3.9 +3.8 99 -0 -0 по сезону 1009.1 1008.6
З 3-6
{8}
28 км ?/? +4.0 +4.0 100 0 0 по сезону 1009.1 1008.6
З 3-6
{6}
25 км ?/? +4.4 +4.4 100 +1 +1 по сезону 1009.0 1008.5
З 3-6
{6}
28 км ?/? +4.6 +4.5 99 +1 +1 по сезону 1009.1 1008.6
З 4-6
{7}
25 км ?/? +4.9 +4.6 98 +1 +1 по сезону 1009.0 1008.5
ЮЗ 5-8
{8}
24 км ?/? +5.1 +4.6 97 0 0 по сезону 1009.1 1008.6 +3.0 +5.1
З 5-7
{8}
26 км ?/? +5.1 +4.7 97 0 0 по сезону 1008.7 1008.2
З 4-8
{8}
28 км 3/3 240 м
[]
+4.9 +4.4 97 +1 +1 по сезону 1008.6 1008.1
ЮЗ 3-6
{8}
25 км ясно +4.4 +4.1 98 +1 +1 по сезону 1008.1 1007.6
ЮЗ 4-6
{8}
26 км ясно +4.2 +3.7 97 -0 -0 по сезону 1007.7 1007.2
ЮЗ 3-5
{6}
26 км ясно +3.8 +3.3 97 -0 -0 по сезону 1007.3 1006.8
ЮЗ 3-7
{7}
29 км ясно +3.7 +3.1 96 -0 -0 по сезону 1007.0 1006.5
ЮЗ 3-7
{7}
30 км 1/1 400 м
[]
+3.8 +3.2 96 -0 -0 по сезону 1007.0 1006.5
ЮЗ 4-6
{6}
30 км 1/1 750 м
[]
+4.0 +3.3 95 -1 -1 по сезону 1006.6 1006.1
ЮЗ 4-7
{7}
30 км ясно +4.1 +3.4 95 -1 -1 по сезону 1006.0 1005.5
ЮЗ 6-9
{9}
30 км 1/1 800 м
[]
+4.8 +3.9 94 -1 -1 по сезону 1005.4 1004.9
ЮЗ 6-9
{10}
35 км 1/1 800 м
[]
+5.5 +4.1 91 0 0 по сезону 1005.1 1004.6
ЮЗ 4-8
{9}
35 км ясно +5.5 +4.2 91 +1 +1 по сезону 1004.8 1004.3 +3.6 +5.6
ЮЗ 5-8
{8}
40 км ясно +5.8 +4.4 91 +1 +1 по сезону 1004.1 1003.6
ЮЗ 5-8
{8}
45 км 3/3 1000 м
[]
+6.3 +4.7 89 +2 +2 по сезону 1003.7 1003.2
ЮЗ 6-10
{12}
45 км ясно +6.5 +4.8 89 +2 +2 по сезону 1003.4 1002.9
ЮЗ 5-10
{11}
45 км ясно +7.3 +5.1 86 +3 +4 по сезону 1003.0 1002.5
ЮЗ 5-10
{10}
45 км ясно +7.1 +4.8 85 +3 +3 по сезону 1002.1 1001.6
ЮЗ 5-9
{11}
45 км ясно +6.8 +4.9 88 +3 +3 по сезону 1001.2 1000.7
ЮЗ 6-12
{12}
45 км ясно +7.4 +4.1 80 +3 +3 по сезону 1000.6 1000.1
ЮЗ 5-9
{12}
45 км ясно +7.1 +3.5 78 +3 +3 по сезону 999.6 999.1
ЮЗ 6-11
{12}
45 км ясно +7.2 +3.0 75 +3 +3 по сезону 999.0 998.5
ЮЗ 6-12
{12}
45 км ясно +7.0 +3.3 77 +3 +3 по сезону 998.5 998.0
ЮЗ 6-11
{12}
45 км ясно +7.0 +3.4 78 +3 +3 по сезону 997.9 997.4
ЮЗ 6-9
{10}
45 км ясно +7.0 +3.5 78 +3 +3 по сезону 997.8 997.3 +5.5 +7.5
ЮЗ 5-8
{12}
45 км ясно +6.7 +3.7 81 +3 +3 по сезону 997.5 997.0
ЮЗ 7-11
{11}
40 км ясно +6.8 +3.8 81 +2 +2 по сезону 996.9 996.4
ЮЗ 6-10
{12}
40 км ясно +7.0 +3.8 80 +3 +3 по сезону 996.1 995.6
ЮЗ 5-8
{10}
45 км ясно +7.1 +3.9 80 +3 +3 по сезону 995.3 994.8
ЮЗ 5-10
{10}
40 км ясно +6.9 +3.9 81 +3 +3 по сезону 994.4 993.9
ЮЗ 6-9
{10}
14 км морось ясно +6.6 +4.2 85 +2 +2 по сезону 993.6 993.1
ЮЗ 5-7
{9}
11 км слаб. дождь {морось} ясно +5.7 +5.1 96 +1 +1 по сезону 992.9 992.4 0.5
ЮЗ 5-7
{8}
9000 м слаб. дождь {морось} ясно +5.5 +5.2 98 +1 +1 по сезону 992.0 991.5 0.8
ЮЗ 5-9
{9}
9000 м слаб. дождь {морось} ясно +5.6 +5.3 98 +1 +1 по сезону 990.6 990.1 1
ЮЗ 8-12
{12}
6000 м дождь {морось} ясно +5.5 +5.1 97 -0 -0 по сезону 989.3 988.8 2
ЮЗ 7-11
{12}
10 км слаб. дождь {морось} ясно +5.6 +5.2 97 0 0 по сезону 988.0 987.5 1
ЮЗ 6-9
{11}
4600 м морось {дождь} ясно +5.3 +5.1 99 0 0 по сезону 987.1 986.6 +5.3 +7.2 0.6
ЮЗ 6-8
{9}
4100 м слаб. дождь {морось} ясно +5.4 +5.3 99 0 0 по сезону 986.4 985.9 0.9
ЮЗ 6-9
{11}
6000 м морось {дождь} ясно +5.7 +5.7 100 +1 +1 по сезону 985.9 985.4 0.6
ЮЗ 5-9
{9}
9000 м дымка {дождь} ?/? +6.5 +6.5 100 +2 +2 по сезону 986.0 985.5
ЮЗ 4-8
{9}
30 км {дождь, морось} ?/? +7.2 +7.2 100 +3 +3 по сезону 986.4 985.9
ЮЗ 3-5
{7}
10 км дымка {дождь} 3/3 240 м
[]
+7.6 +7.6 100 +5 +5 тепло 987.0 986.5
ЮЗ 3-6
{6}
10 км слаб. ливневой дождь {морось} ясно +8.0 +7.9 99 +5 +5 тепло 988.0 987.5 0.1
З 2-5
{7}
40 км {ливн. осадки, морось} ясно +8.1 +7.8 98 +6 +6 тепло 988.5 988.0
ЮЗ 4-7
{7}
45 км {ливн. осадки, морось} ясно +7.8 +7.1 95 +4 +4 по сезону 989.1 988.6
З 3-6
{7}
45 км {ливн. осадки, морось} ясно +7.3 +6.6 95 +4 +4 по сезону 989.9 989.4
З 2-4
{7}
45 км {ливн. осадки, морось} ясно +6.8 +6.2 96 +4 +4 по сезону 990.8 990.3
ЮЗ 2-4
{4}
30 км {ливн. осадки, морось} ясно +6.9 +6.4 97 +4 +4 по сезону 991.3 990.8
ЮЗ 2-4
{4}
40 км в посл. час морось {ливн. осадки, дождь} ясно +7.2 +7.0 99 +5 +5 тепло 991.0 990.5 +5.3 +8.3
ЮЗ 2-3
{4}
40 км ясно +7.1 +6.7 97 +5 +5 тепло 991.3 990.8
ЮЗ 3-5
{5}
40 км ясно +7.0 +6.4 96 +4 +4 по сезону 991.3 990.8
ЮЗ 3-4
{4}
45 км ясно +6.6 +6.0 96 +3 +3 по сезону 991.0 990.5
ЮЗ 2-4
{4}
2200 м морось 1/1 330 м
[]
+6.4 +6.3 99 +4 +4 по сезону 990.6 990.1 0.1
Ю 3-4
{4}
28 км в посл. час морось {ливн. осадки} ясно +6.6 +6.6 100 +3 +3 по сезону 989.9 989.4 0.4
Ю 3-4
{4}
13 км слаб. ливневой дождь {морось} ясно +6.9 +6.9 100 +4 +4 по сезону 988.9 988.4 0.1
ЮЗ 2-4
{6}
5000 м дождь {ливн. осадки} ясно +7.2 +7.2 100 +5 +5 тепло 988.3 987.8 2
ЮЗ 4-7
{7}
45 км морось {ливн. осадки, дождь} 1/1 180 м
[]
+7.1 +7.1 100 +3 +3 по сезону 987.3 986.8 1
ЮЗ 5-8
{8}
50 км {ливн. осадки, дождь} 1/1 240 м
[]
+6.9 +6.9 100 +3 +3 по сезону 986.7 986.2
ЮЗ 4-6
{8}
50 км {ливн. осадки, дождь} 3/3 240 м
[]
+6.7 +6.5 99 +3 +3 по сезону 986.1 985.6
ЮЗ 4-6
{6}
50 км {ливн. осадки, дождь} ясно +6.6 +6.3 98 +3 +3 по сезону 985.4 984.9
ЮЗ 4-6
{6}
50 км {ливн. осадки, дождь} ясно +6.5 +6.2 98 +3 +3 по сезону 985.0 984.5 +5.6 +7.4
ЮЗ 4-7
{7}
50 км ясно +6.5 +6.2 98 +3 +3 по сезону 984.4 983.9
ЮЗ 5-7
{7}
40 км ясно +6.6 +6.3 98 +2 +2 по сезону 984.0 983.5
ЮЗ 5-9
{9}
35 км ясно +7.1 +6.7 97 +3 +3 по сезону 983.6 983.1
ЮЗ 4-8
{8}
50 км ясно +7.7 +6.9 95 +4 +4 по сезону 983.4 982.9
З 5-8
{11}
50 км 1/1 540 м
[]
+6.6 +5.1 90 +2 +3 по сезону 983.8 983.3
З 5-7
{9}
50 км 1/1 450 м
[]
+4.8 +3.5 91 -0 0 по сезону 984.3 983.8
З 3-6
{8}
50 км ясно +3.8 +3.0 95 -0 -0 по сезону 985.0 984.5
СЗ 3-6
{7}
45 км 4/4 240 м
[]
+3.5 +2.9 96 -1 -1 по сезону 985.9 985.4
СЗ 2-6
{7}
12 км в посл. час морось {ливн. осадки} ясно +3.1 +2.8 98 -0 -0 по сезону 986.7 986.2
СЗ 4-7
{7}
12 км слаб. ливневой дождь {морось} ясно +2.2 +1.9 98 -3 -3 прохладно 987.6 987.1 0.5
СЗ 4-9
{9}
12 км слаб. дождь {морось} 1/1 210 м
[]
+1.7 +1.6 99 -4 -4 прохладно 988.6 988.1 0.3
З 4-6
{7}
50 км в посл. час морось {ливн. осадки, дождь} ясно +1.7 +1.4 98 -4 -4 прохладно 989.6 989.1 +1.6 +7.8
З 3-5
{6}
50 км {морось} ясно +1.9 +1.5 97 -3 -3 прохладно 990.8 990.3
З 5-8
{8}
50 км ясно +1.7 +1.2 96 -4 -4 прохладно 991.7 991.2
З 3-7
{8}
50 км ясно +1.0 +0.5 96 -4 -4 прохладно 992.3 991.8
З 2-6
{6}
50 км ясно +0.4 0.0 97 -3 -3 прохладно 993.1 992.6
З 3-6
{6}
50 км ясно +0.2 -0.2 97 -5 -5 холодно 993.5 993.0
З 2-4
{6}
50 км ясно -0.1 -0.4 98 -4 -4 прохладно 994.0 993.5
З 3-6
{6}
50 км ясно -0.1 -0.4 98 -5 -5 холодно 993.9 993.4
З 3-5
{5}
50 км ясно -0.4 -0.5 99 -5 -5 холодно 993.9 993.4
З 1-3
{6}
50 км ясно -0.7 -1.0 98 -3 -3 прохладно 993.5 993.0
З 2-4
{4}
50 км ясно -0.7 -0.9 99 -5 -5 холодно 993.5 993.0
З 2-4
{4}
50 км ясно -0.9 -0.9 100 -5 -5 холодно 992.8 992.3
ЮЗ 1-2
{4}
50 км ясно -0.6 -0.7 99 -3 -3 прохладно 992.3 991.8 -1.2 +2.0
ЮЗ 2-4
{5}
45 км ясно +1.3 +0.9 97 -2 -2 по сезону 990.5 990.0
ЮЗ 3-4
{5}
22 км осадки ясно +2.5 +2.1 97 -2 -2 по сезону 989.1 988.6 0.1
Ю 6-8
{8}
12 км морось ясно +3.5 +3.2 98 -2 -2 по сезону 986.8 986.3 0.3
Ю 6-8
{10}
14 км слаб. дождь {морось, осадки} ясно +3.8 +3.6 99 -2 -2 по сезону 984.4 983.9 1
Ю 5-8
{9}
10 км дождь {морось, осадки} ясно +5.2 +5.2 100 0 0 по сезону 981.6 981.1 2
ЮЗ 7-10
{10}
8000 м дождь ясно +6.1 +6.1 100 +1 +1 по сезону 979.6 979.1 2
ЮЗ 9-13
{13}
7000 м слаб. дождь ясно +6.5 +6.2 98 +1 +1 по сезону 977.9 977.4 2
ЮЗ 7-13
{13}
50 км в посл. час морось {дождь} 1/1 400 м
[]
+6.7 +6.3 97 +2 +2 по сезону 976.5 976.0
ЮЗ 7-11
{12}
30 км слаб. ливневой дождь {морось} ясно +6.8 +6.6 99 +2 +2 по сезону 975.7 975.2 0.4
ЮЗ 8-11
{12}
30 км {ливн. осадки, дождь} ясно +7.2 +6.8 97 +2 +2 по сезону 975.3 974.8
ЮЗ 8-12
{14}
40 км слаб. ливневой дождь ясно +7.4 +6.9 97 +2 +2 по сезону 975.5 975.0 -0.7 +7.4
ЮЗ 6-11
{11}
40 км {дождь, морось} ясно +7.3 +6.0 91 +3 +3 по сезону 975.7 975.2
ЮЗ 6-9
{11}
28 км {дождь, морось} ясно +6.9 +5.2 89 +2 +2 по сезону 976.0 975.5
ЮЗ 6-9
{10}
22 км {дождь, морось} ясно +6.1 +4.3 88 +1 +1 по сезону 976.3 975.8
ЮЗ 5-11
{11}
22 км {дождь, морось} ясно +6.2 +4.2 87 +2 +2 по сезону 976.8 976.3
ЮЗ 6-9
{10}
26 км {дождь, морось} ясно +5.9 +3.9 87 +1 +1 по сезону 977.0 976.5
ЮЗ 5-8
{11}
30 км {дождь, морось} ясно +5.8 +3.8 87 +1 +1 по сезону 977.2 976.7
ЮЗ 5-9
{11}
40 км ясно +6.1 +3.8 85 +2 +2 по сезону 977.5 977.0
ЮЗ 5-8
{10}
40 км ясно +5.8 +3.7 86 +1 +1 по сезону 977.9 977.4
ЮЗ 5-9
{9}
30 км ясно +6.0 +3.8 86 +2 +2 по сезону 978.4 977.9
ЮЗ 4-8
{9}
45 км ясно +5.9 +3.4 84 +2 +2 по сезону 978.9 978.4
ЮЗ 5-8
{8}
40 км ясно +5.9 +3.3 83 +2 +2 по сезону 979.3 978.8
ЮЗ 5-9
{9}
45 км ясно +6.2 +3.4 82 +2 +2 по сезону 980.3 979.8 +5.5 +7.4
ЮЗ 5-7
{9}
45 км ясно +6.1 +3.8 85 +2 +2 по сезону 980.9 980.4
ЮЗ 5-9
{9}
45 км ясно +6.3 +3.8 84 +2 +2 по сезону 981.9 981.4
ЮЗ 5-8
{9}
45 км ясно +6.3 +3.8 84 +2 +2 по сезону 982.7 982.2
ЮЗ 6-9
{10}
30 км слаб. морось ясно +6.3 +4.3 87 +2 +2 по сезону 983.4 982.9
ЮЗ 5-9
{9}
30 км в посл. час морось {ливн. осадки} ясно +6.3 +4.4 88 +2 +2 по сезону 983.9 983.4
ЮЗ 5-9
{9}
45 км в посл. час дождь {ливн. осадки, морось} ясно +6.0 +4.4 89 +2 +2 по сезону 984.7 984.2
ЮЗ 5-7
{9}
45 км {дождь, морось} ясно +6.1 +4.3 88 +2 +2 по сезону 985.3 984.8
ЮЗ 5-7
{8}
45 км {дождь, морось} ясно +6.3 +4.3 87 +2 +2 по сезону 985.8 985.3
ЮЗ 4-7
{10}
45 км в посл. час морось {ливн. осадки, дождь} ясно +5.9 +4.1 88 +2 +2 по сезону 986.5 986.0 0.1
ЮЗ 5-9
{9}
35 км {ливн. осадки, морось} ясно +6.3 +4.1 86 +2 +2 по сезону 987.2 986.7
ЮЗ 5-7
{8}
45 км {ливн. осадки, морось} ясно +6.3 +4.3 87 +2 +2 по сезону 987.8 987.3
ЮЗ 3-6
{7}
45 км {ливн. осадки, морось} ясно +5.8 +4.3 90 +2 +2 по сезону 988.6 988.1 +5.6 +6.5
ЮЗ 3-5
{6}
45 км ясно +5.9 +4.6 91 +3 +3 по сезону 989.4 988.9
ЮЗ 2-4
{5}
13 км слаб. ливневой дождь ясно +5.4 +5.0 97 +3 +3 по сезону 990.4 989.9 0.1
С 4-8
{9}
2100 м слаб. ливневой снег {дождь} ясно +0.8 +0.6 99 -5 -5 холодно 992.4 991.9 0.5
С 4-7
{7}
5000 м слаб. снег {дождь} ясно +0.5 +0.5 100 -5 -5 холодно 993.9 993.4 0.5
С 4-7
{9}
1600 м слаб. снег {дождь} ясно +0.3 +0.3 100 -5 -5 холодно 996.3 995.8 0.4
С 5-8
{10}
1500 м слаб. снег {дождь} ясно -0.4 -0.4 100 -7 -7 холодно 998.4 997.9 0.6
С 4-7
{8}
3200 м слаб. снег ясно -0.6 -0.6 100 -6 -6 холодно 1000.3 999.8 0.4
С 4-7
{8}
8000 м слаб. снег ясно -0.9 -1.0 99 -7 -7 холодно 1002.1 1001.6 0.1
СЗ 4-7
{9}
50 км в посл. час зёрна {морось} 1/0
[]
-1.7 -1.7 100 -8 -8 очень
холодно
1003.8 1003.3
СЗ 3-6
{6}
50 км {снег, морось} ясно -2.6 -2.6 100 -8 -8 очень
холодно
1005.5 1004.9
СЗ 3-6
{6}
50 км {снег, морось} ясно -3.2 -3.4 99 -9 -9 очень
холодно
1006.6 1006.0
СЗ 2-4
{5}
50 км {снег, морось} ясно -3.9 -4.1 99 -8 -8 очень
холодно
1008.2 1007.6 -4.0 +6.0
СЗ 3-5
{5}
50 км ясно -4.1 -4.3 99 -10 -10 очень
холодно
1009.4 1008.8
СЗ 3-5
{5}
45 км ясно -3.8 -4.0 99 -9 -9 очень
холодно
1011.0 1010.4
СЗ 3-4
{6}
45 км ясно -3.5 -3.8 98 -9 -9 очень
холодно
1012.1 1011.5
СЗ 2-4
{4}
45 км ясно -2.8 -3.1 98 -7 -7 холодно 1012.7 1012.1
СЗ 2-3
{5}
45 км ясно -2.2 -2.6 97 -6 -6 холодно 1013.8 1013.2
СЗ 2-3
{4}
45 км ясно -2.2 -2.5 98 -6 -6 холодно 1014.2 1013.6
Местоположение метеостанции Хасфьярден (Швеция): широта 59.07 долгота 18.12 высота над уровнем моря 3 м.
В архиве по умолчанию представлена погода в Хасфьярдене за последнюю неделю. Архивные данные за месяц целиком и за предыдущие месяцы, начиная с января 2011 года, Вы можете получить, выбрав интересующий диапазон дат из раскрывающегося списка и нажав кнопку "Найти!".
*Определитесь, кто Вы:
Внимание! Время в таблицах - всемирное. Для получения местного времени необходимо прибавить поправку, которая равна 1 ч.
Смотрите также архив погоды в соседних городах и на ближайших метеорологических станциях:
Партнеры нашего сайта:      
Пояснения к столбцам:
  • Ветер - указаны скорость ветра в м/с - средняя за 10 мин, порывы в срок и между сроками (в фигурных скобках) и направление, откуда дует ветер: С - северный,
  • СВ - северо-восточный, В - восточный, ЮВ - юго-восточный, Ю - южный, ЮЗ - юго-западный, З - западный, СЗ - северо-западный.
  • Видимость - горизонтальная дальность видимости в метрах или километрах. При видимости от 1 до 10 км при отсутствии осадков обычно наблюдается дымка, при ухудшении видимости до 1 км и менее - туман. В сухую погоду видимость может ухудшаться дымом, пылью или мглою.
  • Явления - указаны атмосферные явления, наблюдавшиеся в срок или в последний час перед сроком; фигурными скобками обозначены явления, наблюдавшиеся между сроками (за 1-3 часа до срока); квадратными скобками обозначены град или гололедные отложения с указанием их диаметра в мм.
  • Облачность - указаны через наклонную черту общая и нижняя облачность в баллах и высота нижней границы облаков в метрах; квадратными скобками обозначены формы облаков: Ci - перистые, Cs - перисто-слоистые, Cc - перисто-кучевые, Ac - высококучевые, As - высокослоистые, Sc - слоисто-кучевые, Ns - слоисто-дождевые, Cu - кучевые, Cb - кучево-дождевые. Подробнее классификацию облаков см. в Атласе облаков (PDF).
  • T - Температура воздуха - температура, измеренная на высоте 2 м над землей.
  • Td - Температура точки росы - температура, при понижении до которой содержащийся в воздухе водяной пар достигнет насыщения.
  • f - Относительная влажность воздуха - влажноcть воздуха, измеренная на высоте 2 м над землей.
  • Te - Эффективная температура - температура, которую ощущает одетый по сезону человек в тени. Характеристика душности погоды. При расчете учитывается влияние влажности воздуха и скорости ветра на теплоощущения человека.
  • Tes - Эффективная температура на солнце - температура, которую ощущает человек, с поправкой на солнечный нагрев. Характеристика знойности погоды. Зависит от высоты солнца над горизонтом, облачности и скорости ветра. Ночью, в пасмурную погоду, а также при ветре 12 м/с и более поправка равна нулю.
  • P - Атмосферное давление - приведенное к уровню моря атмосферное давление.
  • Po - Атмосферное давление - измеренное на уровне метеостанции атмосферное давление.
  • Tmin - Минимальная температура - минимум температуры воздуха на высоте 2 м над землей.
  • Tmax - Максимальная температура - максимум температуры воздуха на высоте 2 м над землей.
  • R - Количество осадков - Количество выпавших осадков за период времени, мм. При наведении курсора мыши на число - период времени, за который выпало указанное количество осадков.
  • R24 - Количество осадков - Количество выпавших осадков за 24 часа, мм.
  • S - Снежный покров - Высота снежного покрова, см. При наведении курсора мыши на число - состояние снежного покрова и степень покрытия местности в баллах.